Find Starlink 34445

NORAD ID: 64457 Int'l Des: 2025-130 Owner: SPXS Country: US Constellation: starlink operational
LEOCIRCULAR

現在のビュー

3D地球を読み込み中...

About Starlink 34445

Starlink 34445 (NORAD 64457) is a starlink constellation satellite (v2 mini) launched Jun 18, 2025 by SPXS of US. It operates in LEO, CIRCULAR orbit with a mass of 575.00 kg.

次回通過

Passes for default location (London). Set your location on the main map for personalized predictions.

高度履歴

Loading altitude history...

軌道要素

1 64457U 25130V 26263.59889426 .00017484 00000-0 52728-3 0 9998
2 64457 53.1591 259.0095 0000771 83.4835 276.6255 15.34405668 70606
Epoch: Sep 20, 2026 • Age: 8 hours

現在のステータス

高度 464.7 km
遠地点 / 近地点 N/A
速度 7.64 km/s
衛星直下点 33.80°N, 65.91°E
打ち上げ日 Jun 18, 2025
運用期間 1.2 years
タイプ internet

技術仕様

分類 Payload
質量 575.00 kg
乾燥質量 530.00 kg
長さ 0.30 m
スパン 29.00 m
形状 ? Box + pan
製造者 SPXS
バスタイプ Starlink V2MO
フェーズステータス In Orbit
所有者/国 SPXS/US

Most Searched